Regional Weather Roundup
Issued by NWS

Home | Current Version | Previous Version | Text Only | Print | Product List | Glossary On
Versions: 1 2 3 4 5 6 7 8 9 10 11 12 13 14 15 16 17 18 19 20 21 22 23 24 25 26 27 28 29 30 31 32 33 34 35 36 37 38 39 40 41 42 43 44 45 46 47 48 49 50
000
ASUS43 KBIS 211410
RWRND
NORTH DAKOTA REGIONAL WEATHER ROUNDUP
NATIONAL WEATHER SERVICE EASTERN NORTH DAKOTA/GRAND FORKS ND
800 AM CST WED FEB 21 2018

  NOTE: "FAIR" INDICATES FEW OR NO CLOUDS BELOW 12,000 FEET WITH NO
  SIGNIFICANT WEATHER AND/OR OBSTRUCTIONS TO VISIBILITY.

NDZ001>003-009>011-017-211500-
...NORTHWEST NORTH DAKOTA...

CITY           SKY/WX    TMP DP  RH WIND       PRES   REMARKS
WILLISTON      FAIR      -9 -15  75 SW6       30.31R WCI -22
MINOT          FAIR      -1 -12  59 SW15      30.30R WCI -21
MINOT AFB      FAIR      -4 -13  65 W10       30.28R WCI -21
$$

NDZ018>021-031>035-040>046-211500-
...SOUTHWEST NORTH DAKOTA...

CITY           SKY/WX    TMP DP  RH WIND       PRES   REMARKS
BISMARCK       FAIR      -7 -14  71 CALM      30.39R
DICKINSON      FAIR      -5 -14  65 SW12      30.26R WCI -23
GARRISON         N/A     -7 -15  68 W10       30.32R WCI -25
HETTINGER      FAIR     -11 -19  68 S7        30.31R WCI -26
$$

NDZ004>008-012>016-024-026-027-054-211500-
...NORTHEAST NORTH DAKOTA...

CITY           SKY/WX    TMP DP  RH WIND       PRES   REMARKS
GRAND FORKS    FAIR      -7 -13  75 SW7       30.42R WCI -21
GRAND FORKS AF PTCLDY     9  -4  56 W2        30.45R
DEVILS LAKE    FAIR      -8 -14  74 W13       30.35R WCI -28
$$

NDZ022-023-025-028>030-036>039-047>053-211500-
...SOUTHEAST NORTH DAKOTA...

CITY           SKY/WX    TMP DP  RH WIND       PRES   REMARKS
JAMESTOWN      FAIR      -4 -12  68 W7        30.39R WCI -18
FARGO          FAIR      -5 -11  75 S9        30.47R WCI -22
WAHPETON       FAIR     -11 -17  77 CALM      30.49R
$$




USA.gov is the U.S. government's official web portal to all federal, state and local government web resources and services.